| time (UTC) | temp F | wind direction | speed MPH | gust MPH | rain 1hr in | rain 24hr in | rain mn in | humidity % | barometer mb |
| 20260902002016 | 91 | 135 | 4.0 | 9.0 | 0.00 | 0.00 | 0.00 | 38 | 1015.5 |
| 20260902001016 | 92 | 135 | 5.0 | 10.0 | 0.00 | 0.00 | 0.00 | 38 | 1015.4 |
| 20260901235016 | 93 | 135 | 6.0 | 11.0 | 0.00 | 0.00 | 0.00 | 36 | 1015.5 |
| 20260901234016 | 93 | 112 | 5.0 | 10.0 | 0.00 | 0.00 | 0.00 | 35 | 1015.5 |
| 20260901232116 | 94 | 112 | 6.0 | 11.0 | 0.00 | 0.00 | 0.00 | 35 | 1015.7 |
| 20260901231017 | 93 | 112 | 3.0 | 7.0 | 0.00 | 0.00 | 0.00 | 35 | 1015.6 |
| 20260901230018 | 94 | 112 | 6.0 | 10.0 | 0.00 | 0.00 | 0.00 | 35 | 1015.7 |
| 20260901224016 | 94 | 112 | 6.0 | 16.0 | 0.00 | 0.00 | 0.00 | 36 | 1015.5 |
| 20260901223018 | 94 | 135 | 4.0 | 9.0 | 0.00 | 0.00 | 0.00 | 38 | 1015.5 |
| 20260901222017 | 91 | 90 | 5.0 | 11.0 | 0.00 | 0.00 | 0.00 | 39 | 1015.5 |
| 20260901221016 | 92 | 112 | 6.0 | 10.0 | 0.00 | 0.00 | 0.00 | 38 | 1015.6 |
| 20260901220016 | 95 | 90 | 9.0 | 14.0 | 0.00 | 0.00 | 0.00 | 36 | 1015.7 |
| 20260901215016 | 95 | 67 | 9.0 | 12.0 | 0.00 | 0.00 | 0.00 | 35 | 1015.8 |
| 20260901214016 | 95 | 180 | 3.0 | 9.0 | 0.00 | 0.00 | 0.00 | 36 | 1015.8 |
| 20260901213016 | 95 | 90 | 8.0 | 14.0 | 0.00 | 0.00 | 0.00 | 35 | 1016.1 |
| 20260901212016 | 94 | 180 | 3.0 | 6.0 | 0.00 | 0.00 | 0.00 | 35 | 1016.1 |
| 20260901211016 | 94 | 135 | 3.0 | 7.0 | 0.00 | 0.00 | 0.00 | 34 | 1016.5 |
| 20260901210016 | 92 | 135 | 3.0 | 6.0 | 0.00 | 0.00 | 0.00 | 36 | 1016.5 |
| 20260901205017 | 94 | 157 | 2.0 | 6.0 | 0.00 | 0.00 | 0.00 | 34 | 1016.7 |
| 20260901204016 | 93 | 157 | 4.0 | 7.0 | 0.00 | 0.00 | 0.00 | 36 | 1016.8 |
| 20260901203016 | 94 | 135 | 3.0 | 7.0 | 0.00 | 0.00 | 0.00 | 35 | 1017.3 |
| 20260901202016 | 93 | 225 | 3.0 | 7.0 | 0.00 | 0.00 | 0.00 | 36 | 1017.1 |
| 20260901201016 | 92 | 67 | 2.0 | 5.0 | 0.00 | 0.00 | 0.00 | 37 | 1017.4 |
| 20260901200016 | 92 | 90 | 5.0 | 12.0 | 0.00 | 0.00 | 0.00 | 38 | 1017.3 |
| 20260901195016 | 92 | 135 | 4.0 | 7.0 | 0.00 | 0.00 | 0.00 | 38 | 1017.5 |
| 20260901194016 | 91 | 202 | 3.0 | 6.0 | 0.00 | 0.00 | 0.00 | 38 | 1017.6 |
| 20260901193016 | 91 | 315 | 2.0 | 4.0 | 0.00 | 0.00 | 0.00 | 38 | 1017.6 |
| 20260901192017 | 92 | 157 | 5.0 | 10.0 | 0.00 | 0.00 | 0.00 | 37 | 1017.9 |
| 20260901191016 | 93 | 90 | 7.0 | 12.0 | 0.00 | 0.00 | 0.00 | 37 | 1018.2 |
| 20260901190016 | 91 | 112 | 2.0 | 5.0 | 0.00 | 0.00 | 0.00 | 38 | 1018.1 |
| 20260901185016 | 93 | 135 | 5.0 | 10.0 | 0.00 | 0.00 | 0.00 | 38 | 1018.4 |
| 20260901184016 | 92 | 135 | 5.0 | 12.0 | 0.00 | 0.00 | 0.00 | 38 | 1018.5 |
| 20260901183016 | 92 | 135 | 5.0 | 10.0 | 0.00 | 0.00 | 0.00 | 39 | 1018.6 |
| 20260901182016 | 90 | 90 | 3.0 | 6.0 | 0.00 | 0.00 | 0.00 | 41 | 1018.7 |
| 20260901181016 | 90 | 90 | 5.0 | 9.0 | 0.00 | 0.00 | 0.00 | 40 | 1018.9 |
| 20260901180016 | 91 | 90 | 8.0 | 13.0 | 0.00 | 0.00 | 0.00 | 40 | 1018.9 |
| 20260901175017 | 91 | 90 | 7.0 | 14.0 | 0.00 | 0.00 | 0.00 | 42 | 1019.2 |
| 20260901174018 | 90 | 202 | 4.0 | 10.0 | 0.00 | 0.00 | 0.00 | 44 | 1019.3 |
| 20260901173016 | 91 | 180 | 6.0 | 14.0 | 0.00 | 0.00 | 0.00 | 42 | 1019.7 |
| 20260901172016 | 89 | 180 | 4.0 | 9.0 | 0.00 | 0.00 | 0.00 | 43 | 1019.7 |
| 20260901171016 | 89 | 180 | 5.0 | 11.0 | 0.00 | 0.00 | 0.00 | 43 | 1019.8 |
| 20260901170016 | 89 | 90 | 5.0 | 12.0 | 0.00 | 0.00 | 0.00 | 43 | 1019.8 |
| 20260901165117 | 88 | 135 | 6.0 | 11.0 | 0.00 | 0.00 | 0.00 | 42 | 1019.7 |
| 20260901164016 | 87 | 180 | 5.0 | 11.0 | 0.00 | 0.00 | 0.00 | 46 | 1019.6 |
| 20260901163017 | 86 | 180 | 5.0 | 10.0 | 0.00 | 0.00 | 0.00 | 47 | 1019.7 |
| 20260901162017 | 86 | 180 | 5.0 | 9.0 | 0.00 | 0.00 | 0.00 | 46 | 1019.5 |
| 20260901161016 | 86 | 202 | 8.0 | 13.0 | 0.00 | 0.00 | 0.00 | 47 | 1019.4 |
| 20260901160016 | 86 | 202 | 7.0 | 13.0 | 0.00 | 0.00 | 0.00 | 48 | 1019.5 |
| 20260901155016 | 85 | 202 | 6.0 | 12.0 | 0.00 | 0.00 | 0.00 | 47 | 1019.3 |
| 20260901154016 | 85 | 180 | 5.0 | 11.0 | 0.00 | 0.00 | 0.00 | 48 | 1019.3 |
| 20260901152017 | 83 | 180 | 6.0 | 11.0 | 0.00 | 0.00 | 0.00 | 51 | 1019.4 |
| 20260901151016 | 82 | 202 | 6.0 | 9.0 | 0.00 | 0.00 | 0.00 | 56 | 1019.3 |
| 20260901150016 | 81 | 202 | 5.0 | 9.0 | 0.00 | 0.00 | 0.00 | 58 | 1019.1 |
| 20260901145016 | 80 | 202 | 6.0 | 10.0 | 0.00 | 0.00 | 0.00 | 61 | 1019.2 |
| 20260901144016 | 80 | 202 | 5.0 | 10.0 | 0.00 | 0.00 | 0.00 | 65 | 1019.2 |
| 20260901143017 | 79 | 202 | 4.0 | 8.0 | 0.00 | 0.00 | 0.00 | 68 | 1019.1 |
| 20260901142016 | 77 | 202 | 5.0 | 10.0 | 0.00 | 0.00 | 0.00 | 74 | 1019.0 |
| 20260901141016 | 76 | 202 | 4.0 | 9.0 | 0.00 | 0.00 | 0.00 | 75 | 1019.2 |
| 20260901135016 | 74 | 157 | 3.0 | 6.0 | 0.00 | 0.00 | 0.00 | 83 | 1019.0 |
| 20260901133016 | 73 | 157 | 3.0 | 7.0 | 0.00 | 0.00 | 0.00 | 88 | 1018.8 |
| 20260901132016 | 72 | 157 | 3.0 | 7.0 | 0.00 | 0.00 | 0.00 | 89 | 1018.8 |
| 20260901131017 | 72 | 135 | 2.0 | 5.0 | 0.00 | 0.00 | 0.00 | 90 | 1018.8 |
| 20260901130016 | 71 | 157 | 2.0 | 4.0 | 0.00 | 0.00 | 0.00 | 90 | 1018.6 |
| 20260901125016 | 71 | 157 | 3.0 | 5.0 | 0.00 | 0.00 | 0.00 | 90 | 1018.4 |
| 20260901124017 | 71 | 180 | 3.0 | 5.0 | 0.00 | 0.00 | 0.00 | 90 | 1018.3 |
| 20260901123017 | 71 | 180 | 2.0 | 5.0 | 0.00 | 0.00 | 0.00 | 90 | 1018.5 |
| 20260901122017 | 70 | 180 | 3.0 | 6.0 | 0.00 | 0.00 | 0.00 | 90 | 1018.5 |
| 20260901120016 | 70 | 180 | 2.0 | 5.0 | 0.00 | 0.00 | 0.00 | 89 | 1018.2 |
| 20260901115016 | 71 | 180 | 3.0 | 6.0 | 0.00 | 0.00 | 0.00 | 89 | 1018.2 |
| 20260901114117 | 71 | 180 | 3.0 | 9.0 | 0.00 | 0.00 | 0.00 | 88 | 1018.3 |
| 20260901113117 | 71 | 180 | 4.0 | 7.0 | 0.00 | 0.00 | 0.00 | 88 | 1018.4 |
| 20260901112017 | 71 | 180 | 4.0 | 9.0 | 0.00 | 0.00 | 0.00 | 87 | 1018.5 |
| 20260901111017 | 71 | 180 | 6.0 | 10.0 | 0.00 | 0.00 | 0.00 | 87 | 1018.7 |
| 20260901110016 | 72 | 202 | 6.0 | 11.0 | 0.00 | 0.00 | 0.00 | 86 | 1018.7 |
| 20260901105017 | 72 | 180 | 7.0 | 11.0 | 0.00 | 0.00 | 0.00 | 86 | 1018.7 |
| 20260901104017 | 72 | 180 | 7.0 | 13.0 | 0.00 | 0.00 | 0.00 | 85 | 1018.7 |
| 20260901102117 | 72 | 180 | 8.0 | 14.0 | 0.00 | 0.00 | 0.00 | 84 | 1018.6 |
| 20260901101017 | 72 | 180 | 7.0 | 11.0 | 0.00 | 0.00 | 0.00 | 83 | 1018.6 |
| 20260901100017 | 72 | 180 | 6.0 | 11.0 | 0.00 | 0.00 | 0.00 | 82 | 1018.5 |
| 20260901095017 | 73 | 180 | 6.0 | 10.0 | 0.00 | 0.00 | 0.00 | 82 | 1018.9 |
| 20260901094017 | 73 | 180 | 6.0 | 12.0 | 0.00 | 0.00 | 0.00 | 81 | 1018.8 |
| 20260901093017 | 73 | 180 | 6.0 | 11.0 | 0.00 | 0.00 | 0.00 | 81 | 1018.9 |
| 20260901092017 | 73 | 180 | 5.0 | 9.0 | 0.00 | 0.00 | 0.00 | 80 | 1018.8 |
| 20260901091017 | 73 | 180 | 4.0 | 7.0 | 0.00 | 0.00 | 0.00 | 79 | 1019.0 |
| 20260901085016 | 73 | 180 | 5.0 | 11.0 | 0.00 | 0.00 | 0.00 | 78 | 1018.7 |
| 20260901084017 | 74 | 180 | 5.0 | 10.0 | 0.00 | 0.00 | 0.00 | 77 | 1018.7 |
| 20260901083017 | 74 | 180 | 5.0 | 9.0 | 0.00 | 0.00 | 0.00 | 76 | 1018.7 |
| 20260901082017 | 74 | 180 | 5.0 | 11.0 | 0.00 | 0.00 | 0.00 | 75 | 1018.7 |
| 20260901081017 | 74 | 180 | 4.0 | 9.0 | 0.00 | 0.00 | 0.00 | 74 | 1018.6 |
| 20260901075017 | 75 | 157 | 4.0 | 8.0 | 0.00 | 0.00 | 0.00 | 73 | 1018.5 |
| 20260901074017 | 75 | 157 | 3.0 | 5.0 | 0.00 | 0.00 | 0.00 | 73 | 1018.9 |
| 20260901073017 | 75 | 157 | 3.0 | 6.0 | 0.00 | 0.00 | 0.00 | 72 | 1019.0 |
| 20260901072017 | 76 | 157 | 4.0 | 6.0 | 0.00 | 0.00 | 0.00 | 71 | 1018.8 |
| 20260901071017 | 76 | 180 | 4.0 | 6.0 | 0.00 | 0.00 | 0.00 | 71 | 1018.9 |
| 20260901070017 | 76 | 157 | 3.0 | 7.0 | 0.00 | 0.00 | 0.00 | 70 | 1019.1 |
| 20260901065017 | 77 | 180 | 4.0 | 7.0 | 0.00 | 0.00 | 0.00 | 69 | 1019.0 |
| 20260901064017 | 77 | 180 | 6.0 | 10.0 | 0.00 | 0.00 | 0.00 | 69 | 1019.0 |
| 20260901063017 | 77 | 180 | 6.0 | 11.0 | 0.00 | 0.00 | 0.00 | 68 | 1018.9 |
| 20260901062017 | 77 | 180 | 5.0 | 12.0 | 0.00 | 0.00 | 0.00 | 68 | 1018.7 |
| 20260901061017 | 77 | 180 | 6.0 | 12.0 | 0.00 | 0.00 | 0.00 | 68 | 1018.6 |
| 20260901055117 | 78 | 180 | 6.0 | 11.0 | 0.00 | 0.00 | 0.00 | 66 | 1018.6 |
| 20260901054017 | 78 | 180 | 5.0 | 13.0 | 0.00 | 0.00 | 0.00 | 66 | 1018.4 |
| 20260901053017 | 78 | 157 | 5.0 | 9.0 | 0.00 | 0.00 | 0.00 | 65 | 1018.1 |
| 20260901052017 | 79 | 157 | 4.0 | 10.0 | 0.00 | 0.00 | 0.00 | 64 | 1018.1 |
| 20260901051015 | 79 | 157 | 4.0 | 9.0 | 0.00 | 0.00 | 0.00 | 63 | 1017.9 |
| 20260901050017 | 79 | 180 | 4.0 | 9.0 | 0.00 | 0.00 | 0.00 | 63 | 1017.9 |
| 20260901045017 | 79 | 157 | 4.0 | 10.0 | 0.00 | 0.00 | 0.00 | 62 | 1017.9 |
| 20260901044017 | 79 | 157 | 5.0 | 8.0 | 0.00 | 0.00 | 0.00 | 61 | 1017.9 |
| 20260901043117 | 79 | 157 | 4.0 | 9.0 | 0.00 | 0.00 | 0.00 | 61 | 1017.8 |
| 20260901042017 | 78 | 135 | 3.0 | 7.0 | 0.00 | 0.00 | 0.00 | 60 | 1017.7 |
| 20260901041016 | 79 | 135 | 3.0 | 7.0 | 0.00 | 0.00 | 0.00 | 59 | 1017.7 |
| 20260901035017 | 79 | 135 | 3.0 | 6.0 | 0.00 | 0.00 | 0.00 | 58 | 1017.4 |
| 20260901034117 | 79 | 112 | 2.0 | 5.0 | 0.00 | 0.00 | 0.00 | 58 | 1017.4 |
| 20260901033016 | 79 | 135 | 2.0 | 3.0 | 0.00 | 0.00 | 0.00 | 58 | 1017.5 |
| 20260901032017 | 79 | 135 | 2.0 | 3.0 | 0.00 | 0.00 | 0.00 | 58 | 1017.1 |
| 20260901031017 | 80 | 135 | 2.0 | 3.0 | 0.00 | 0.00 | 0.00 | 57 | 1017.0 |
| 20260901030118 | 80 | 135 | 2.0 | 4.0 | 0.00 | 0.00 | 0.00 | 56 | 1017.0 |
| 20260901025016 | 80 | 135 | 1.0 | 4.0 | 0.00 | 0.00 | 0.00 | 56 | 1017.0 |
| 20260901024017 | 80 | 135 | 2.0 | 3.0 | 0.00 | 0.00 | 0.00 | 55 | 1016.7 |
| 20260901023019 | 81 | 135 | 2.0 | 3.0 | 0.00 | 0.00 | 0.00 | 55 | 1016.7 |
| 20260901022017 | 82 | 135 | 2.0 | 4.0 | 0.00 | 0.00 | 0.00 | 53 | 1016.5 |
| 20260901021017 | 82 | 112 | 3.0 | 7.0 | 0.00 | 0.00 | 0.00 | 53 | 1016.4 |
| 20260901020019 | 82 | 135 | 2.0 | 5.0 | 0.00 | 0.00 | 0.00 | 52 | 1015.9 |
| 20260901015017 | 82 | 135 | 2.0 | 4.0 | 0.00 | 0.00 | 0.00 | 51 | 1015.9 |
| 20260901014019 | 83 | 135 | 2.0 | 3.0 | 0.00 | 0.00 | 0.00 | 49 | 1016.0 |
| 20260901013017 | 84 | 135 | 3.0 | 5.0 | 0.00 | 0.00 | 0.00 | 49 | 1015.8 |
| 20260901012016 | 85 | 135 | 3.0 | 5.0 | 0.00 | 0.00 | 0.00 | 48 | 1016.0 |
| 20260901011017 | 85 | 135 | 3.0 | 7.0 | 0.00 | 0.00 | 0.00 | 47 | 1015.9 |
| 20260901010017 | 86 | 135 | 3.0 | 5.0 | 0.00 | 0.00 | 0.00 | 46 | 1015.9 |
| 20260901005017 | 87 | 135 | 3.0 | 6.0 | 0.00 | 0.00 | 0.00 | 45 | 1015.9 |
| 20260901004024 | 88 | 135 | 4.0 | 11.0 | 0.00 | 0.00 | 0.00 | 44 | 1015.9 |
| 20260901003019 | 88 | 135 | 4.0 | 7.0 | 0.00 | 0.00 | 0.00 | 44 | 1015.7 |